Tiempo cada hora Golaszowka

Hoy, 29 Noviembre, Domingo

Tiempo Temperatura Precipitaciones Viento Presión Humedad
00:00 0°C° 0.3 mm 1 mps 739 mmHg 96%
01:00 -2°C° 0 mm 2 mps 739 mmHg 96%
02:00 -2°C° 0.3 mm 2 mps 738 mmHg 96%
03:00 -2°C° 0.3 mm 2 mps 738 mmHg 96%
04:00 -3°C° 0.3 mm 2 mps 738 mmHg 96%
05:00 -3°C° 0.2 mm 2 mps 738 mmHg 96%
06:00 -1°C° 0.2 mm 1 mps 738 mmHg 96%
07:00 -1°C° 0 mm 1 mps 738 mmHg 97%
08:00 0°C° 0.1 mm 1 mps 738 mmHg 94%
09:00 0°C° 0.1 mm 1 mps 738 mmHg 92%
10:00 +1°C° 0.1 mm 1 mps 738 mmHg 89%
11:00 +1°C° 0.1 mm 1 mps 738 mmHg 88%
12:00 +1°C° 0.1 mm 1 mps 739 mmHg 86%
13:00 +2°C° 0.1 mm 1 mps 739 mmHg 85%
14:00 +1°C° 0.1 mm 1 mps 739 mmHg 88%
15:00 0°C° 0.1 mm 1 mps 739 mmHg 92%
16:00 0°C° 0.1 mm 1 mps 739 mmHg 95%
17:00 0°C° 0.2 mm 1 mps 739 mmHg 95%
18:00 0°C° 0.2 mm 1 mps 739 mmHg 96%
19:00 -1°C° 0.2 mm 1 mps 740 mmHg 96%
20:00 -1°C° 0.2 mm 1 mps 740 mmHg 96%
21:00 -2°C° 0.2 mm 0 mps 740 mmHg 95%
22:00 -3°C° 0.2 mm 0 mps 740 mmHg 95%
23:00 -3°C° 0 mm 0 mps 741 mmHg 95%

Mañana, 30 Noviembre, Lunes

Tiempo Temperatura Precipitaciones Viento Presión Humedad
00:00 -3°C° 0 mm 0 mps 741 mmHg 96%
01:00 -3°C° 0 mm 1 mps 741 mmHg 96%
02:00 -2°C° 0 mm 1 mps 741 mmHg 96%
03:00 -2°C° 0 mm 1 mps 741 mmHg 96%
04:00 -2°C° 0 mm 1 mps 741 mmHg 95%
05:00 -2°C° 0 mm 1 mps 741 mmHg 95%
06:00 -2°C° 0 mm 1 mps 742 mmHg 94%
07:00 -2°C° 0 mm 1 mps 742 mmHg 93%
08:00 -1°C° 0 mm 1 mps 742 mmHg 89%
09:00 -3°C° 0 mm 2 mps 743 mmHg 86%
10:00 -2°C° 0 mm 2 mps 743 mmHg 82%
11:00 -2°C° 0 mm 2 mps 743 mmHg 80%
12:00 -2°C° 0 mm 2 mps 743 mmHg 78%
13:00 -1°C° 0 mm 2 mps 743 mmHg 77%
14:00 0°C° 0 mm 1 mps 743 mmHg 78%
15:00 0°C° 0 mm 1 mps 743 mmHg 80%
16:00 0°C° 0 mm 1 mps 743 mmHg 82%
17:00 -1°C° 0 mm 1 mps 743 mmHg 83%
18:00 -1°C° 0 mm 1 mps 743 mmHg 84%
19:00 -2°C° 0 mm 1 mps 743 mmHg 85%
20:00 -2°C° 0 mm 1 mps 743 mmHg 86%
21:00 -3°C° 0 mm 1 mps 743 mmHg 87%
22:00 -3°C° 0 mm 1 mps 743 mmHg 88%
23:00 -5°C° 0 mm 2 mps 743 mmHg 88%

Pasado mañana, 1 Diciembre, Martes

Tiempo Temperatura Precipitaciones Viento Presión Humedad
00:00 -5°C° 0 mm 2 mps 743 mmHg 88%
01:00 -5°C° 0 mm 2 mps 743 mmHg 88%
02:00 -5°C° 0 mm 2 mps 742 mmHg 89%
03:00 -5°C° 0 mm 2 mps 742 mmHg 89%
04:00 -6°C° 0 mm 2 mps 742 mmHg 89%
05:00 -6°C° 0 mm 2 mps 742 mmHg 89%
06:00 -6°C° 0 mm 2 mps 742 mmHg 89%
07:00 -6°C° 0 mm 2 mps 742 mmHg 89%
08:00 -4°C° 0 mm 2 mps 742 mmHg 85%
09:00 -4°C° 0 mm 3 mps 742 mmHg 81%
10:00 -2°C° 0 mm 3 mps 742 mmHg 76%
11:00 -2°C° 0 mm 3 mps 742 mmHg 74%
12:00 -1°C° 0 mm 3 mps 742 mmHg 73%
13:00 0°C° 0 mm 3 mps 742 mmHg 71%
14:00 -1°C° 0 mm 2 mps 741 mmHg 75%
15:00 -3°C° 0 mm 2 mps 741 mmHg 80%
16:00 -4°C° 0 mm 2 mps 741 mmHg 85%
17:00 -4°C° 0 mm 2 mps 741 mmHg 85%
18:00 -4°C° 0 mm 2 mps 741 mmHg 86%
19:00 -3°C° 0 mm 1 mps 741 mmHg 86%
20:00 -3°C° 0 mm 1 mps 741 mmHg 85%
21:00 -3°C° 0 mm 1 mps 741 mmHg 84%
22:00 -3°C° 0 mm 1 mps 741 mmHg 84%
23:00 -3°C° 0 mm 1 mps 741 mmHg 83%

2 Diciembre, Miércoles

Tiempo Temperatura Precipitaciones Viento Presión Humedad
00:00 -3°C° 0 mm 1 mps 741 mmHg 83%
01:00 -3°C° 0 mm 1 mps 741 mmHg 82%
02:00 -4°C° 0 mm 1 mps 741 mmHg 82%
03:00 -4°C° 0 mm 1 mps 741 mmHg 81%
04:00 -4°C° 0 mm 1 mps 741 mmHg 81%
05:00 -4°C° 0 mm 1 mps 741 mmHg 81%
06:00 -4°C° 0 mm 1 mps 741 mmHg 80%
07:00 -4°C° 0 mm 1 mps 741 mmHg 80%
08:00 -3°C° 0 mm 1 mps 741 mmHg 77%
09:00 -2°C° 0 mm 1 mps 741 mmHg 73%
10:00 -1°C° 0 mm 1 mps 741 mmHg 69%
11:00 -2°C° 0 mm 2 mps 740 mmHg 69%
12:00 -1°C° 0 mm 2 mps 740 mmHg 68%
13:00 -1°C° 0 mm 2 mps 740 mmHg 68%
14:00 -2°C° 0 mm 2 mps 740 mmHg 73%
15:00 -3°C° 0 mm 2 mps 739 mmHg 78%
16:00 -2°C° 0 mm 1 mps 739 mmHg 83%
17:00 -2°C° 0 mm 1 mps 739 mmHg 82%
18:00 -4°C° 0 mm 2 mps 739 mmHg 82%
19:00 -5°C° 0 mm 2 mps 739 mmHg 82%
20:00 -5°C° 0 mm 2 mps 739 mmHg 80%
21:00 -5°C° 0 mm 2 mps 739 mmHg 78%
22:00 -5°C° 0 mm 2 mps 739 mmHg 77%
23:00 -5°C° 0 mm 2 mps 738 mmHg 75%

3 Diciembre, Jueves

Tiempo Temperatura Precipitaciones Viento Presión Humedad
00:00 -5°C° 0 mm 2 mps 738 mmHg 73%
01:00 -5°C° 0 mm 2 mps 738 mmHg 71%
02:00 -5°C° 0 mm 2 mps 738 mmHg 71%
03:00 -5°C° 0 mm 2 mps 737 mmHg 71%
04:00 -5°C° 0 mm 2 mps 737 mmHg 71%
05:00 -5°C° 0 mm 2 mps 737 mmHg 71%
06:00 -5°C° 0 mm 2 mps 737 mmHg 71%
07:00 -5°C° 0 mm 2 mps 737 mmHg 72%
08:00 -4°C° 0 mm 2 mps 737 mmHg 69%
09:00 -2°C° 0 mm 3 mps 737 mmHg 66%
10:00 -1°C° 0 mm 3 mps 737 mmHg 64%
11:00 0°C° 0 mm 3 mps 736 mmHg 64%
12:00 0°C° 0 mm 3 mps 736 mmHg 64%
13:00 +2°C° 0 mm 2 mps 735 mmHg 64%
14:00 +1°C° 0 mm 2 mps 735 mmHg 67%
15:00 -1°C° 0 mm 2 mps 735 mmHg 70%
16:00 -2°C° 0 mm 2 mps 735 mmHg 73%
17:00 -2°C° 0 mm 2 mps 735 mmHg 72%
18:00 -1°C° 0 mm 2 mps 734 mmHg 71%
19:00 -1°C° 0 mm 2 mps 734 mmHg 70%
20:00 -1°C° 0 mm 2 mps 734 mmHg 68%
21:00 -1°C° 0 mm 2 mps 734 mmHg 67%
22:00 -1°C° 0 mm 3 mps 733 mmHg 65%
23:00 -1°C° 0 mm 2 mps 733 mmHg 64%

4 Diciembre, Viernes

Tiempo Temperatura Precipitaciones Viento Presión Humedad
00:00 -1°C° 0 mm 2 mps 733 mmHg 63%
01:00 -1°C° 0 mm 2 mps 733 mmHg 62%
02:00 -1°C° 0 mm 2 mps 733 mmHg 62%
03:00 +1°C° 0 mm 2 mps 732 mmHg 62%
04:00 +1°C° 0 mm 2 mps 732 mmHg 62%
05:00 +1°C° 0 mm 2 mps 732 mmHg 63%
06:00 +1°C° 0 mm 2 mps 732 mmHg 63%
07:00 +1°C° 0 mm 2 mps 731 mmHg 64%
08:00 +2°C° 0 mm 2 mps 731 mmHg 64%
09:00 +2°C° 0 mm 2 mps 731 mmHg 63%
10:00 +3°C° 0 mm 2 mps 731 mmHg 63%
11:00 +4°C° 0 mm 2 mps 731 mmHg 64%
12:00 +4°C° 0 mm 2 mps 731 mmHg 65%
13:00 +5°C° 0 mm 2 mps 731 mmHg 65%
14:00 +4°C° 0 mm 2 mps 731 mmHg 69%
15:00 +3°C° 0 mm 2 mps 731 mmHg 73%
16:00 +2°C° 0 mm 2 mps 730 mmHg 77%
17:00 +2°C° 0 mm 2 mps 731 mmHg 78%
18:00 +2°C° 0 mm 2 mps 731 mmHg 80%
19:00 +1°C° 0 mm 3 mps 731 mmHg 82%
20:00 +2°C° 0 mm 2 mps 731 mmHg 83%
21:00 +2°C° 0 mm 2 mps 731 mmHg 84%
22:00 +2°C° 0 mm 2 mps 731 mmHg 86%
23:00 +2°C° 0 mm 2 mps 731 mmHg 87%
Mostrar más

Necesitamos Su Consentimiento

Meteoprog y nuestros Proveedores de Servicios pueden almacenar y acceder a sus datos personales como cookies, identificadores de dispositivo u otras tecnologías similares de su dispositivo y procesar dichos datos para personalizar contenido y anuncios, además de ofrecer funciones de redes sociales y analizar el tráfico.

  • Almacenar y/o acceder a información en su dispositivo

    Se puede almacenar o acceder a cookies, identificadores de dispositivo u otra información de su dispositivo para los fines anteriormente indicados.

  • Anuncios y contenido personalizados, medición de anuncios y contenido, percepciones del público, y desarrollo de productos

    Los anuncios y el contenido pueden personalizarse en base a su perfil. Se pueden añadir más datos para personalizar mejor los anuncios y contenidos. Se puede medir el rendimiento de los anuncios y contenidos. Se puede obtener la percepción sobre el público que ha visto los anuncios y contenidos. Dichos datos pueden usarse para desarrollar o mejorar la experiencia del usuario, sistemas y software.

Al hacer clic en ‘Estoy De Acuerdo’ usted permitirá el uso de las cookies, identificadores de dispositivo, balizas web u otras tecnologías similares indicadas. Su configuración puede cambiarse desde el navegador de su dispositivo.

Para ciertos fines, los intereses legítimos pueden ser considerados por encima del consentimiento. Puede leer más sobre ello en nuestra Política de Privacidad y Cookies.